Regional Weather Roundup
Issued by NWS Northern Indiana

Home | Current Version | Previous Version | Graphics & Text | Print | Product List | Glossary On
Versions: 1 2 3 4 5 6 7 8 9 10 11 12 13 14 15 16 17 18 19 20 21 22 23 24 25 26 27 28 29 30 31 32 33 34 35 36 37 38 39 40 41 42 43 44 45 46 47 48 49 50
000
ASUS43 KIWX 160800
RWRIWX

KIWX WEATHER ROUNDUP
NATIONAL WEATHER SERVICE NORTHERN INDIANA
400 AM EDT WED APR 16 2014

NOTE: "FAIR" INDICATES FEW OR NO CLOUDS BELOW 12,000 FEET WITH NO
SIGNIFICANT WEATHER AND/OR OBSTRUCTIONS TO VISIBILITY.

* THESE STATIONS ARE NOT UNDER NWS QUALITY CONTROL. THEY ALSO MAY NOT
  REPORT WEATHER SUCH AS PRECIPITATION OR FOG.

INZ001>027-160900-
NORTHERN INDIANA

CITY           SKY/WX    TMP DP  RH WIND       PRES   REMARKS
VALPARAISO     CLEAR     23  16  74 E3        30.27R
SOUTH BEND     CLEAR     27  14  58 SE5       30.28R WCI  22
GOSHEN         CLEAR     26  16  65 SE3       30.28R
ANGOLA*        CLEAR     21  18  86 CALM      30.27R
FORT WAYNE     CLEAR     24  17  74 S3        30.30R
PERU/GRISSOM   CLEAR     25  20  79 SE6       30.29R WCI  18

$$
INZ028>050-160900-
CENTRAL INDIANA

CITY           SKY/WX    TMP DP  RH WIND       PRES   REMARKS
LAFAYETTE      CLEAR     28  19  69 CALM      30.28R
KOKOMO*        CLEAR     27  19  74 S6        30.29R WCI  20
MUNCIE*        CLEAR     27  14  58 S5        30.30R WCI  22
INDIANAPOLIS   CLEAR     27  19  72 SE6       30.29R WCI  20

$$
MIZ043>046-050>051-056>058-064>065-071>073-077>080-160900-
SOUTHWEST LOWER MICHIGAN

CITY           SKY/WX    TMP DP  RH WIND       PRES   REMARKS
BATTLE CREEK   CLEAR     23  15  71 CALM      30.27R
BENTON HARBOR  CLEAR     24  15  68 SE6       30.27R WCI  17
COLDWATER*     CLEAR     21  19  89 CALM      30.28R
HILLSDALE*     CLEAR     20  13  72 CALM      30.25R
HOLLAND        CLEAR     25  18  74 S5        30.28R WCI  19
GRAND RAPIDS   CLEAR     23  16  74 CALM      30.27R
KALAMAZOO      CLEAR     23  16  74 CALM      30.27R
STURGIS*       CLEAR     23  16  74 CALM      30.27R
THREE RIVERS*  FAIR      25  18  76 CALM      30.28R

$$
OHZ001>008-015>018-024>025-160900-
NORTHWEST OHIO

CITY           SKY/WX    TMP DP  RH WIND       PRES   REMARKS
DEFIANCE       CLEAR     22  14  71 SW3       30.31R
FINDLAY        CLEAR     26  18  71 CALM      30.29R
TOLEDO EXPRESS CLEAR     22  15  75 CALM      30.29R
TOLEDO METCALF CLEAR     24  14  65 W5        30.31R WCI  18
LIMA           CLEAR     25  18  74 CALM      30.29R

$$
&&



USA.gov is the U.S. government's official web portal to all federal, state and local government web resources and services.